{"data":{"norad_id":37826,"epoch":"2026-05-25T03:22:40.673856Z","epoch_age_seconds":77074,"freshness":"FRESH","line1":"1 37826U 11054A   26145.14074854 -.00000244  00000+0  00000+0 0  9997","line2":"2 37826   0.0575  80.3016 0002718 338.7193 157.3780  1.00272375 49646","mean_motion":1.00272375,"eccentricity":0.0002718,"inclination_deg":0.0575,"raan_deg":80.3016,"arg_perigee_deg":338.7193,"mean_anomaly_deg":157.378,"bstar":0,"rev_number":4964,"period_min":1436.0884540732,"perigee_km":35774.969234392,"apogee_km":35797.889892776,"semimajor_km":42164.566563584,"source":"CELESTRAK","updated_at":"2026-05-25T13:38:14.505079Z"}}